Regional Weather Roundup
Issued by NWS

Home | Current Version | Previous Version | Text Only | Print | Product List | Glossary On
Versions: 1 2 3 4 5 6 7 8 9 10 11 12 13 14 15 16 17 18 19 20 21 22 23 24 25 26 27 28 29 30 31 32 33 34 35 36 37 38 39 40 41 42 43 44 45 46 47 48 49 50
000
ASCA42 TJSJ 290811
RWRPR
PUERTO RICO/U.S. VIRGIN ISLANDS HOURLY WEATHER ROUNDUP
NATIONAL WEATHER SERVICE SAN JUAN PR
400 AM AST FRI AUG 29 2014

PRZ001-004-290900-
PUERTO RICO

CITY           SKY/WX    TMP DP  RH WIND       PRES   REMARKS
SAN JUAN LMM   PTCLDY    79  73  83 S3        30.00S
CEIBA          PTCLDY    75  73  94 CALM      30.02S
$$

PRZ006-007-290900-
U.S. VIRGIN ISLANDS

CITY           SKY/WX    TMP DP  RH WIND       PRES   REMARKS
CHARLOTTE AMA  PTCLDY    79  72  78 N3        29.99
CHRISTIANSTED  PTCLDY    73  72  94 N5        29.99
$$

HOURLY WEATHER ROUNDUP FOR THE NEWS MEDIA

CITY           SKY/WX    TMP DP  RH WIND       PRES   REMARKS
MIAMI          PTCLDY    82  76  81 SE3       29.99F
ORLANDO        PTCLDY    78  75  90 SE6       30.01S
NEW YORK       PTCLDY    65  49  56 N9        30.08S
NEWARK         CLEAR     61  49  64 N7        30.09R
CHICAGO        CLOUDY    71  63  75 S8        29.97F
HARTFORD       CLEAR     56  49  77 CALM      30.03R
BOSTON         PTCLDY    61  49  64 NW7       30.04R
DALLAS         MOCLDY    79  65  62 N10       29.93R
PHILADELPHIA   PTCLDY    62  48  60 N7        30.11R


USA.gov is the U.S. government's official web portal to all federal, state and local government web resources and services.